Back to catalog

THOR ABLESTAR DEB

AliveLEO
NORAD 245·DEBRIS·🇺🇸 United States

Launched Jun 29, 1961 from Cape Canaveral Space Force Station

Loading…

Next Passes (next 24 hours)

TLE

FreshSource: Space-Track

Epoch: Sep 14, 2026, 13:45 UTC

1 00245U 61015CA  26257.57317681  .00000472  00000-0  26887-3 0  9991
2 00245  66.1025 296.5997 0045401 157.5875 202.7210 14.18289565340552

Track THOR ABLESTAR DEB in real time with AllMySat

Download on the App Store